Location: Unspecified
(0.0000°N, 0.0000°E)
Time: 16:13:24
(UTC+01:00)

ATLAS V CENTAUR R/B - Visible Passes

Search period start: 04 March 2015 00:00
Search period end: 14 March 2015 00:00
Orbit: 239 x 29907 km, 18.0° (Epoch: 03 March)

Date Brightness Start Highest point End Pass type
(mag) Time Alt. Az. Time Alt. Az. Time Alt. Az.
04 Mar 8.0 00:30:07 10° WSW 08:11:12 59° N 08:24:37 10° ENE visible
04 Mar 6.6 17:26:23 10° SSW 17:31:44 27° SSE 17:58:54 10° E visible
05 Mar 6.1 03:09:44 10° W 10:28:18 68° N 10:33:09 10° E visible
05 Mar 7.6 19:33:37 10° SW 19:46:41 57° SSE 03:22:34 10° ENE visible
06 Mar 8.8 21:42:18 10° WSW 22:21:18 83° SSE 05:40:38 10° ENE visible
07 Mar 8.3 23:55:04 10° WSW 07:34:27 61° N 07:50:54 10° E visible
08 Mar 6.5 16:52:35 10° SSW 16:56:53 21° SSE 17:11:51 10° ESE visible
09 Mar 6.5 02:23:45 10° W 09:51:51 68° N 09:57:41 10° E visible
09 Mar 7.4 18:57:24 10° SW 19:08:12 52° SSE 02:41:09 10° ENE visible
10 Mar 8.7 21:03:26 10° WSW 21:31:43 79° SSE 05:00:12 10° ENE visible
11 Mar 8.7 23:12:33 10° WSW 06:47:29 62° N 07:09:30 10° ENE visible
12 Mar 6.1 16:11:43 10° S 16:14:31 15° SSE 16:20:46 10° ESE visible
13 Mar 6.9 01:32:10 10° W 09:07:16 67° N 09:14:45 10° E visible
